KCVG Airport Diagram

We have created a template for each of the higher traffic airports in the vZID airspace. They include KCMH, KCRW, KCVG, KDAY, KIND, KLEX and KSDF. You wil find usefull information including the airport diagram, weather, and specific airport procedures.

KCVG Weather

[Source: ADDS]
METAR
KCVG 200652Z 05012KT 5SM -FZRAPL FEW033 OVC041 00/M02 A3023 RMK AO2 PRESFR SLP241 P0009 I1004 T00001022 =
KCVG 200650Z 2007/2112 09009KT 2SM -FZRA OVC025 FM200800 09012KT 2SM -RA OVC012 FM201000 10012KT 4SM -RA OVC008 FM201600 14010KT P6SM -RA OVC006 FM202000 18010KT 4SM -RA OVC005 WS020/21045KT FM210100 25012G18KT 4SM -DZ OVC004 FM210700 27010KT P6SM OVC008
TAF
KCVG 200650Z 2007/2112 09009KT 2SM -FZRA OVC025 FM200800 09012KT 2SM -RA OVC012 FM201000 10012KT 4SM -RA OVC008 FM201600 14010KT P6SM -RA OVC006 FM202000 18010KT 4SM -RA OVC005 WS020/21045KT FM210100 25012G18KT 4SM -DZ OVC004 FM210700 27010KT P6SM OVC008 =

KCVG Operations

Calm Wind Configuration is Landing runways 36C and 36R, departing runway 27.

You can expect  this configuration up to and including a 10 knot tailwind.

The Center runway is the old 18R/36L in the default scenery. Additionally, runway 9/27 was lengthened to 12,000 feet when the west runway (18R/36L) was added.

Where parallel taxiways exist, inner taxiway is used by inbound traffic and outer taxiway is used by outbound traffic.

FDX & UPS use the ramp area at Terminal 1.

New Scenery is available at FlightSim.com.

On initial contact, arriving aircraft should notify the the controller which scenery they have.

 

JSN Epic template designed by JoomlaShine.com